Flag for Belarus Weather past 2 weeks in Gomel, Belarus

Now
32 °F

Clear.


Feels Like: 24 °F
Forecast: 33 / 38 °F
Wind: 10 mph from Southeast

Location: Gomel'

Current Time: Jan 29, 2015 at 2:11:31 PM

Latest Report: Jan 29, 2015 at 1:30 PM


Visibility: 6 mi

Pressure: 29.68 "Hg

Humidity: 87%

Dew point: 28 °F

Location of GomelLocation

Historic Weather in Gomel — Graph

°F

Gomel temperature yesterday

Maximum temperature yesterday: 32 °F (at 3:00 PM)
Minimum temperature yesterday: 27 °F (at 12:00 AM)
Average temperature yesterday: 29 °F

Past Weeks' High & Low Weather Summary

 TemperatureHumidityPressure
High41 °F (Jan 14, 3:00 PM)100% (Jan 16, 12:00 AM)30.30 "Hg (Jan 16, 12:00 AM)
Low19 °F (Jan 25, 8:00 AM)65% (Jan 14, 1:00 PM)29.71 "Hg (Jan 29, 6:30 AM)
Average30 °F91%30.11 "Hg
* Reported Jan 14 1:00 PM — Jan 29 1:00 PM, Gomel, Weather by CustomWeather, © 2014

Note: Actual official high and low records may vary slightly from our data, if they occured in-between our weather recording intervals... More about our weather records

Advertising

Gomel weather history for previous 24 hours

 ConditionsComfort  
Time TempWeatherWind HumidityBarometerVisibility
1:00 PM
Jan 29
32 °FOvercast.10 mph87%29.71 "Hg6 mi
12:30 PM32 °FPartly sunny.10 mph87%29.71 "Hg6 mi
12:00 PM32 °FLight snow. Partly sunny.10 mph87%29.71 "Hg5 mi
11:30 AM32 °FPartly sunny.13 mph87%29.71 "Hg5 mi
11:00 AM32 °FPartly sunny.13 mph87%29.71 "Hg4 mi
10:30 AM30 °FOvercast.13 mph93%29.71 "Hg4 mi
10:00 AM30 °FOvercast.13 mph93%29.71 "Hg4 mi
9:30 AM30 °FMostly cloudy.10 mph93%29.71 "Hg4 mi
9:00 AM30 °FMostly cloudy.10 mph93%29.71 "Hg4 mi
8:30 AM30 °FOvercast.13 mph93%29.71 "Hg6 mi
8:00 AM30 °FOvercast.10 mph93%29.71 "Hg5 mi
7:30 AM32 °FOvercast.13 mph87%29.71 "Hg4 mi
7:00 AM32 °FOvercast.13 mph87%29.71 "Hg4 mi
6:30 AM32 °FOvercast.13 mph87%29.71 "Hg4 mi
6:00 AM32 °FOvercast.10 mph87%29.74 "Hg4 mi
5:00 AM32 °FOvercast.10 mph93%29.74 "Hg4 mi
4:00 AM32 °FOvercast.10 mph93%29.74 "Hg4 mi
3:00 AM32 °FOvercast.10 mph93%29.74 "Hg4 mi
2:00 AM32 °FIce fog.10 mph93%29.77 "Hg3 mi
1:00 AM32 °FIce fog.10 mph100%29.80 "Hg3 mi
12:00 AM32 °FSnow flurries. Ice fog.10 mph100%29.80 "Hg2 mi
11:00 PM
Jan 28
32 °FSnow flurries. Ice fog.10 mph100%29.83 "Hg3 mi
10:00 PM32 °FSnow flurries. Ice fog.10 mph100%29.83 "Hg2 mi
9:00 PM32 °FSnow flurries. Ice fog.10 mph100%29.83 "Hg2 mi
8:00 PM32 °FSnow flurries. Ice fog.8 mph100%29.83 "Hg2 mi
7:30 PM32 °FSnow flurries. Ice fog.8 mph100%29.83 "Hg2 mi
7:00 PM32 °FSnow flurries. Ice fog.8 mph100%29.83 "Hg2 mi
6:30 PM32 °FSnow flurries. Ice fog.10 mph93%29.83 "Hg2 mi
6:00 PM32 °FSnow showers. Ice fog.10 mph93%29.83 "Hg1 mi
5:30 PM32 °FSnow showers. Ice fog.10 mph93%29.83 "Hg1 mi
5:00 PM32 °FSnow flurries. Ice fog.8 mph93%29.83 "Hg2 mi
4:30 PM32 °FSnow flurries. Ice fog.10 mph93%29.86 "Hg3 mi
4:00 PM32 °FSnow flurries. Ice fog.10 mph93%29.86 "Hg3 mi
3:30 PM32 °FSnow flurries. Ice fog.10 mph93%29.86 "Hg3 mi
3:00 PM32 °FSnow flurries. Ice fog.10 mph93%29.86 "Hg3 mi
2:30 PM30 °FSnow flurries. Ice fog.10 mph100%29.86 "Hg2 mi
2:00 PM30 °FSnow flurries. Ice fog.13 mph100%29.89 "Hg2 mi
Weather by CustomWeather, © 2014

See weather overviewHow to use our weather pages